User: anonymous   Login
Location: Unspecified
(0.0000°N, 0.0000°E)
Time: 02:24:57
(UTC+00:00)
Language:

Relay 2 - Orbit

View from above orbital plane
View from above orbital plane
View from above satellite
View from above satellite

Ground track
Ground track

The orbit data is extracted from the following two-line orbital elements,

1   737U 64003A   18267.43438517 -.00000025 +00000-0 +00000-0 0  9997
2   737 046.4456 282.1382 2589736 097.2978 292.6021 07.39531199477250
Epoch (UTC): 24 September 2018 10:25:30
Eccentricity: 0.2589736
inclination: 46.4456°
perigee height: 1868 km
apogee height: 7632 km
right ascension of ascending node: 282.1382°
argument of perigee: 97.2978°
revolutions per day: 7.39531199
mean anomaly at epoch: 292.6021°
orbit number at epoch: 47725

The dashed part of the orbit path shows where the satellite is in the earth's shadow,  

DLR